Regional Weather Roundup
Issued by NWS Charleston, SC

Current Version | Previous Version | Text Only | Print | Product List | Glossary On
Versions: 1 2 3 4 5 6 7 8 9 10 11 12 13 14 15 16 17 18 19 20 21 22 23 24 25 26 27 28 29 30 31 32 33 34 35 36 37 38 39 40 41 42 43 44 45 46 47 48 49 50
000
ASUS42 KCHS 171525
RWRCHS

REGIONAL WEATHER ROUNDUP
NATIONAL WEATHER SERVICE CHARLESTON SC
1100 AM EDT THU APR 17 2014

NOTE: "FAIR" INDICATES FEW OR NO CLOUDS BELOW 12,000 FEET WITH NO
SIGNIFICANT WEATHER AND/OR OBSTRUCTIONS TO VISIBILITY.

NOT ALL STATIONS ARE QUALITY CONTROLLED BY THE NATIONAL
WEATHER SERVICE. USE DATA WITH CAUTION...ESPECIALLY
DEWPOINT OBSERVATIONS.

SCZ027-030-031-034>040-042>050-171600-
...SOUTH CAROLINA...

CITY           SKY/WX    TMP DP  RH WIND       PRES   REMARKS
N CHARLESTON   MOSUNNY   56  39  53 NE10      30.45S
WATERFRONT PRK   N/A     52 N/A N/A NE13G18     N/A
FORT JOHNSON     N/A     52  45  76 NE7       30.50R
MOUNT PLEASANT FAIR     N/A N/A N/A N7        30.45S
JOHNS ISLAND   SUNNY     57  45  62 NE12      30.44S
PINOPOLIS        N/A     50  37  62 NE9       30.38R
MONCKS CORNER  FAIR      54  43  66 N3        30.46S
SUMMERVILLE    FAIR      55  43  62 N10       30.46S
BEAUFORT MCAS  MOSUNNY   58  41  53 E9        30.44R
BEAUFORT ARPT  FAIR      55  46  71 NE13      30.44R
HILTON HEAD IS SUNNY     55  46  71 N14G23    30.44R
GEORGETOWN     NOT AVBL
WALTERBORO     MOSUNNY   57  41  54 E12       30.46R
ORANGEBURG     MOSUNNY   52  29  41 NE12      30.48R
BARNWELL       FAIR      55  27  33 NE13      30.47S
AIKEN          FAIR      54  32  43 NE13      30.50R
MANNING        FAIR      54  37  54 N9        30.48F
KINGSTREE      NOT AVBL
COLUMBIA       MOSUNNY   54  18  24 NE10G21   30.49S
SUMTER         MOSUNNY   51  30  44 N12G21    30.48S
FLORENCE       SUNNY     53  35  50 NE10      30.50S
MYRTLE BEACH   SUNNY     52  39  62 N12       30.47R
N MYRTLE BEACH MOSUNNY   56  40  55 NE10      30.47R

$$

GAZ063-065-086>088-099>101-113>116-118-119-134-136>141-150-171600-
...GEORGIA...

CITY           SKY/WX    TMP DP  RH WIND       PRES   REMARKS
SAVANNAH ARPT  MOSUNNY   59  42  53 NE13      30.43R
HUNTER AAF     CLOUDY    56  46  69 NE10G18   30.39S
FORT STEWART   CLOUDY    59  48  67 NE10G21   30.39S
STATESBORO     NOT AVBL
SYLVANIA       CLOUDY    58  32  37 NE10      30.45S
CLAXTON        FAIR      59  39  47 NE8G17    30.43S
THOMSON        SUNNY     53  38  58 NE12      30.51S
AUGUSTA-BUSH   SUNNY     55  27  34 E9        30.47R
AUGUSTA-DANIEL SUNNY     55  31  39 NE14      30.47R
SWAINSBORO     CLOUDY    54  32  43 E7        30.45R
VIDALIA        MOSUNNY   59  39  47 NE14G20   30.42S
ALMA           CLOUDY    58  46  64 NE10G18   30.38R
WAYCROSS       NOT AVBL
JESUP          CLOUDY    55  48  76 NE13G18   30.39R
BRUNSWICK      CLOUDY    57  50  77 NE13G20   30.38R
SAINT SIMONS   LGT RAIN  58  52  80 N16       30.36R

$$

SCZ027-028-034-036>038-045-046-048>050-GAZ119-141-171600-
...LAKE AND SUPPLEMENTAL COASTAL OBSERVATIONS...

STATION/POSITION TIME  TEMP    WIND        PRES    WAVE   SWELL
                       AIR SEA DIR/SP/G            HT/PER HT/PER/DIR
                 (UTC) (F)     (DEG/KT/KT) (MB)    (FT/S) (FT/S/D)
UPR LAKE MARION  NOT AVBL
WINYAH BAY       1500   51      60/  9     1031.0S
LAKE MURRAY      1500   50      50/  5/ 11 1032.2R
ACE BASIN NERRS  1500   55      40/  5     1030.0S
FORT PULASKI     1500   54 59   30/ 15/ 21 1030.1S
SAPELO ISLAND    1500   58      30/ 18     1028.0S

$$

ANZ086-088-AMZ330-350-352-354-374-454-470-171600-
...C-MAN AND BUOY OBSERVATIONS...

STATION/POSITION TIME  TEMP    WIND        PRES    WAVE   SWELL
                       AIR SEA DIR/SP/G            HT/PER HT/PER/DIR
                 (UTC) (F)     (DEG/KT/KT) (MB)    (FT/S) (FT/S/D)
FOLLY BEACH CMAN 1500   52      40/ 16/ 19 1031.2R
BUOY 41004       NOT AVBL
BUOY 41008       1500   62 64   50/ 23/ 27 1027.3R   7/ 7   3/ 90/ 9
5E ST. MARYS GA  1500      64                N/A     9/ 7   2/ 90/12
FRYING PAN BUOY  1500   57 63   50/ 23/ 27 1029.6R   8/ 7   3/100/ 9
BUOY 41025       NOT AVBL
CAPE LOOKOUT NC  1500   54      20/ 20/ 23 1031.8R
BUOY 41002       NOT AVBL
BUOY 41010       1500   72 76   50/ 21/ 25 1023.2F  10/11   7/ 20/11
BUOY 41012       NOT AVBL
ST AUGUSTINE FL  1500   66      30/ 18/ 20 1026.2R


$$


USA.gov is the U.S. government's official web portal to all federal, state and local government web resources and services.